Location: Hines Observatory
(31.5604°N, 83.5172°W)
Time: 18:59:02
(UTC-04:00)

Daily predictions for brighter satellites

Satellite Brightness Start Highest point End
(mag) Time Altitude Azimuth Time Altitude Azimuth Time Altitude Azimuth
Cosmos 1302 Rocket 4.2 20:23:42 10° S 20:28:40 48° ESE 20:33:40 10° NNE
Meteor 2-3 Rocket 4.0 20:27:55 10° N 20:33:29 53° E 20:39:06 10° SSE
FREGAT/IRIS 2.8 20:31:42 10° S 20:34:42 74° WSW 20:37:44 10° NNW
Cosmos 1980 Rocket 2.2 20:29:28 10° SSW 20:35:08 86° ESE 20:40:51 10° NNE
Cosmos 1315 Rocket 4.2 20:34:27 10° NNE 20:37:35 21° ENE 20:40:41 10° SE
SEDSat Delta rocket 3.7 20:39:12 10° WSW 20:44:07 53° SSE 20:49:48 10° E
OTV 4 0.3 20:43:49 10° WNW 20:46:41 79° NNE 20:49:08 13° ESE
Cosmos 2227 Rocket 3.7 20:42:35 10° NW 20:47:45 37° WSW 20:52:53 10° S
CZ-2D R/B 3.9 20:44:10 10° SE 20:47:47 37° ENE 20:51:23 10° N
Cosmos 1825 4.2 20:49:46 10° NE 20:51:22 12° ENE 20:52:20 11° E
SL-16 R/B 2.7 20:46:33 10° S 20:51:41 37° ESE 20:56:50 10° NE
FengYun 1-2 T 4.3 20:48:46 10° SSE 20:54:25 88° WSW 21:00:06 10° NNW
Nadezhda 4 Rocket 4.0 20:50:16 10° N 20:56:33 75° E 21:02:51 10° S
GPS 2-04 Rocket1 3.0 20:55:20 10° W 20:58:48 48° SSW 21:01:34 16° SE
Cosmos 1634 Rocket 4.1 20:53:11 10° SSE 20:59:14 54° E 21:05:22 10° NNE
Hubble Space Telescope 3.2 20:58:01 10° SW 20:59:48 12° SSW 21:01:35 10° S
Cosmos 1707 Rocket 3.5 20:57:07 10° S 21:01:32 76° E 21:05:58 10° N
Sakura Rocket 4.3 20:58:42 10° SSW 21:01:37 20° SSE 21:03:16 16° ESE
HJ-1C 4.3 20:59:17 10° S 21:02:39 52° W 21:06:02 10° NNW
USA 186 2.0 21:02:40 21° SE 21:03:57 34° ENE 21:06:30 10° N
Cosmos 1092 Rocket 4.1 21:00:01 10° N 21:06:17 63° E 21:12:33 10° SSE
Helios 1B rocket 2.7 21:03:11 10° NNE 21:07:07 46° E 21:11:03 10° S
Lacrosse 4 Rocket 3.4 21:04:43 10° NNE 21:07:21 15° ENE 21:08:46 14° E
ALOS 3.4 21:03:04 10° S 21:07:32 45° W 21:12:00 10° NNW
Cosmos 1939 Rocket 4.3 21:08:25 19° E 21:09:47 22° ENE 21:12:54 10° NNE
ERBS 4.4 21:09:19 10° N 21:11:35 16° NE 21:12:44 14° ENE
Gblst 52 Del rocket 4.1 21:06:49 10° NW 21:12:37 75° NE 21:16:27 20° SE
Cosmos 1486 Rocket 4.0 21:10:01 10° N 21:15:12 62° ENE 21:19:20 16° SSE
Resurs 1-3 3.7 21:14:52 10° S 21:19:14 76° WSW 21:23:38 10° NNW
Cosmos 1992 Rocket 4.2 21:16:21 10° S 21:21:19 45° ESE 21:26:18 10° NNE
Cosmos 1869 Rocket 3.8 21:20:18 10° N 21:24:46 71° W 21:29:12 10° S
Cosmos 2227 4.2 21:19:47 10° NNW 21:25:30 67° ENE 21:29:15 22° SSE
Atlas Centaur 2 2.9 21:19:06 10° SW 21:25:47 56° SSE 21:31:32 19° E
Cosmos 1408 3.2 21:23:35 10° NNE 21:27:01 36° E 21:27:28 34° E
SAR-Lupe-1 4.5 21:26:08 35° ESE 21:27:01 42° ENE 21:30:26 10° N
SL-8 R/B 4.1 21:26:42 10° WNW 21:31:25 56° SW 21:33:57 26° SSE
Cosmos 2242 Rocket 3.5 21:28:34 10° S 21:33:05 80° E 21:37:35 10° N
Cosmos 1455 4.4 21:31:21 10° SW 21:34:36 27° W 21:37:50 10° NNW
Helios 1A 2.9 21:36:34 27° SSE 21:38:51 86° ENE 21:43:06 10° NNW
CZ-4B DEB 4.4 21:39:11 42° SSE 21:40:19 88° ENE 21:43:53 10° N
Cosmos 1627 Rocket 4.4 21:34:16 10° N 21:40:28 77° E 21:45:01 19° SSE
Cosmos 2279 Rocket 3.9 21:34:17 10° S 21:40:29 69° E 21:46:40 10° NNE
Cosmos 2195 Rocket 4.4 21:37:52 10° N 21:44:01 85° E 21:48:44 18° S
Cosmos 1503 Rocket 4.0 21:41:24 10° N 21:46:36 60° ENE 21:48:10 41° SE
DELTA 2 R/B (1) 3.6 21:41:57 10° WNW 21:47:35 78° SSW 21:49:34 41° SE
CZ-3B DEB 2.7 21:46:19 10° WNW 21:48:20 16° WSW 21:48:45 15° SW
Resurs 01 Rocket 3.6 21:46:41 10° SSW 21:50:25 27° W 21:54:12 10° NW
Cosmos 1354 Rocket 3.9 21:45:19 10° N 21:50:34 67° ENE 21:52:08 44° SE
H-2A R/B 4.2 21:52:50 10° NE 21:52:50 10° NE 21:52:53 10° NE
SJ-11-01 4.1 21:51:18 41° SSE 21:52:56 83° ENE 21:57:36 10° N
CZ-4B DEB 3.1 21:54:21 60° NW 21:54:21 60° NW 21:57:01 10° NNW
OAO 3 Rocket 3.7 21:49:52 10° W 21:54:42 57° N 21:56:39 34° ENE
YAOGAN 6 3.6 21:56:56 35° NNE 21:56:56 35° NNE 21:59:27 10° N
FALCON 9 R/B 2.7 21:59:41 10° WNW 22:00:47 22° WNW 22:00:47 22° WNW
Cosmos 2180 Rocket 4.4 21:56:56 14° S 22:02:38 86° E 22:09:00 10° N
Cosmos 1428 Rocket 4.3 21:56:51 10° N 22:02:56 70° E 22:04:53 44° SSE
SPOT 5 4.3 22:04:11 24° NE 22:04:11 24° NE 22:07:03 10° NNE
Meteor 2-10 Rocket 3.7 22:05:37 48° SSE 22:07:08 66° E 22:12:54 10° NNE
Cosmos 2322 Rocket 3.4 22:02:36 10° SW 22:07:52 41° WNW 22:13:10 10° N
Cosmos 2263 Rocket 2.4 22:02:46 10° N 22:08:09 48° ENE 22:08:25 47° ENE
Envisat 3.4 22:05:47 29° SSW 22:08:13 59° W 22:13:14 10° NNW
Cosmos 1933 3.7 22:11:30 54° WSW 22:12:03 60° W 22:16:03 10° N
Cosmos 220 Rocket 4.4 22:08:31 10° NNW 22:12:54 60° WSW 22:13:27 55° SW
Cosmos 2360 Rocket 2.0 22:15:49 37° SSW 22:18:08 84° ESE 22:23:49 10° NNE
USA 234 3.1 22:22:54 58° SE 22:24:20 84° NE 22:30:54 10° NW
Cosmos 2322 3.5 22:25:27 74° S 22:25:59 84° ESE 22:31:43 10° NNE
Cosmos 1825 3.9 22:23:41 10° NNW 22:26:59 29° W 22:27:16 28° W
NOAA 11 4.3 22:28:03 63° NE 22:28:03 63° NE 22:33:08 10° N
CZ-3 Stage 3 4.4 22:12:55 10° WNW 22:28:16 25° WSW 22:31:42 18° SSW
SEDSat Delta rocket 3.5 22:24:53 10° W 22:30:28 88° S 22:30:34 87° ESE
SL-16 R/B 4.4 22:31:15 10° WSW 22:35:48 24° WNW 22:40:22 10° N
MetOp-B 4.3 22:42:09 66° N 22:42:09 66° N 22:46:44 10° NNW
ERS-1 Rocket 3.4 22:42:09 58° W 22:42:09 58° W 22:46:51 10° NNW
Lacrosse 4 Rocket 3.0 22:42:05 10° NW 22:45:08 34° WNW 22:45:08 34° WNW
ATLAS 5 CENTAUR R/B 2.9 22:42:23 10° NNW 22:47:45 51° NE 22:47:45 51° NE
Skynet4D Del rocket 4.4 22:40:49 10° W 22:48:17 61° SSW 22:48:17 61° SSW
ARGOS 3.7 22:52:58 51° N 22:52:58 51° N 22:56:57 10° N
Milstar 3 3.1 22:47:13 10° W 22:53:09 49° SW 22:53:09 49° SW
SeaSat 1 3.6 22:57:02 38° N 22:57:02 38° N 23:00:07 10° NNW
Terra 4.2 23:10:04 16° NNE 23:10:04 16° NNE 23:11:07 10° N
USA 229 DEB 4.3 23:02:42 10° SW 23:09:19 54° WNW 23:16:04 10° NNE
USA 229 4.2 23:02:47 10° SW 23:09:24 54° WNW 23:16:09 10° NNE
Cosmos 1844 Rocket 4.4 23:06:29 10° N 23:09:04 23° NNE 23:09:04 23° NNE
Atlas Centaur 2 3.1 23:07:47 10° W 23:14:12 66° WSW 23:14:12 66° WSW
Cosmos 2219 Rocket 4.5 23:28:38 15° NNE 23:28:38 15° NNE 23:29:29 10° NNE
H-2A R/B 3.9 23:33:27 25° NNW 23:33:27 25° NNW 23:35:33 10° NNW
H-2A R/B 3.8 23:07:50 10° W 23:51:40 65° SW 23:51:40 65° SW
